Location: Lafig�re
(44.4503°N, 4.0357°E)
Time: 15:39:59
(UTC+00:00)

Vanguard 2 Rocket - Pass Details

Date: 27 January 2021
Orbit: 554 x 3325 km, 32.9° (Epoch: 06 March)

Event Time Altitude Azimuth Distance (km) Brightness Sun altitude
Rises 19:23:18 0° 268° (W) 4,782 11.9 -28.0°
Reaches altitude 10° 19:28:57 10° 245° (WSW) 3,143 10.4 -29.0°
Maximum altitude 19:32:08 13° 219° (SW) 2,557 9.6 -29.6°
Drops below altitude 10° 19:34:47 10° 192° (SSW) 2,500 9.2 -30.0°
Enters shadow 19:35:35 - 185° (S) 2,576 9.2 -30.2°
Sets 19:38:16 0° 164° (SSE) 3,094 - -30.7°
